SCP
0 0 0 0 0 0 0 0 0 0 0 0 0 0 0 0 0 -0 -0 -0 -0 -0 -0 -0 -0 0 0 0 0 -0 -0 0 -0 -0 -0 -0 -0 0 -0 -0 0 -0 -0 0 0 -0 -0
0 0 0 0 0 0 0 0 0 0 0 0 0 0 0 0 0 -0 -0 -0 -0 -0 -0 -0 -0 -0 0 -0 -0 -0 -0 -0 -0 -0 -0 0 -0 -0 -0 0 -0 0 0 -0 0 -0 0
-0 -0 -0 0 0 0 0 0 0 0 0 0 0 0 0 0 0 -0 -0 -0 -0 -0 -0 -0 -0 -0 0 -0 -0 0 0 -0 -0 -0 0 0 0 0 -0 -0 -0 -0 -0 -0 0 0 0
-0 0 0 0 0 0 0 0 0 0 0 0 0 0 0 0 0 0 -0 -0 -0 -0 -0 -0 0 0 0 0 0 0 -0 0 0 0 0 0 -0 -0 0 -0 -0 -0 -0 -0 -0 0 0
0 0 0 0 -0 0 0 0 0 0 0 0 0 0 0 0 0 0 -0 -0 -0 -0 -0 0 0 0 -0 0 0 -0 -0 0 -0 0 0 0 -0 -0 -0 -0 -0 -0 -0 -0 0 0 0
0 0 0 0 0 0 0 0 0 0 0 0 0 0 0 0 0 0 -0 0 -0 -0 0 0 0 0 0 0 0 0 -0 0 0 -0 -0 -0 -0 -0 0 -0 0 -0 -0 -0 0 0 0
0 0 0 0 0 0 0 0 0 0 0 0 0 0 0 0 0 0 0 0 0 0 0 -0 0 -0 0 0 0 -0 -0 -0 -0 -0 -0 -0 -0 -0 -0 0 0 0 0 -0 0 0 0
0 0 0 -0 -0 0 0 0 0 0 0 0 0 0 0 0 0 0 0 0 0 0 0 -0 0 0 0 0 -0 -0 0 -0 -0 -0 -0 -0 -0 0 0 0 0 0 -0 -0 0 0 0
0 0 0 -0 -0 0 -0 -0 -0 -0 -0 0 0 0 0 0 0 0 0 -0 0 0 0 0 -0 0 0 -0 -0 -0 -0 -0 -0 -0 -0 -0 0 0 0 0 0 -0 -0 0 0 -0 0
0 0 -0 -0 -0 -0 -0 -0 -0 -0 -0 -0 0 0 0 0 0 0 0 0 0 0 0 -0 0 0 0 -0 0 0 0 -0 0 -0 -0 -0 0 0 0 0 0 0 -0 0 -0 -0 0
0 0 -0 -0 -0 -0 -0 -0 -0 -0 -0 0 0 0 0 -0 0 -0 0 0 0 0 -0 -0 -0 0 -0 0 -0 -0 0 0 -0 0 0 0 0 0 -0 0 0 0 0 -0 0 -0 -0
0 0 0 0 0 0 -0 -0 -0 -0 -0 -0 0 0 0 0 0 0 0 0 0 0 -0 0 -0 0 0 -0 0 0 0 -0 -0 0 -0 0 0 0 0 0 0 0 -0 -0 -0 -0 -0
0 0 0 0 0 0 0 -0 -0 -0 -0 -0 -0 0 0 0 0 0 0 0 0 0 0 0 -0 -0 0 -0 0 0 0 0 0 0 0 0 0 0 0 -0 0 0 0 -0 0 0 0
0 0 0 0 0 0 0 0 -0 -0 -0 -0 -0 0 0 0 0 0 0 0 0 -0 0 0 0 0 0 -0 0 0 0 0 0 -0 -0 0 0 0 0 0 0 -0 0 0 0 0 -0
0 0 0 0 0 0 0 0 0 -0 -0 -0 -0 0 0 0 0 0 0 0 0 0 0 0 0 0 -0 0 0 0 0 0 0 0 0 0 0 0 0 0 0 0 0 0 0 -0 -0
0 0 0 0 0 0 0 0 0 0 -0 0 0 0 -0 -0 0 0 0 0 0 0 0 0 0 0 -0 -0 0 0 -0 0 0 0 0 0 0 -0 0 0 0 0 0 0 0 0 -0
0 0 0 0 0 0 0 0 0 0 -0 0 0 0 0 0 0 0 0 0 0 0 0 0 0 -0 -0 0 0 0 0 0 0 0 0 0 0 0 -0 0 0 0 0 0 0 0 0
0 0 0 0 0 0 0 0 0 0 -0 0 0 0 0 0 0 0 0 0 0 0 0 0 0 0 0 0 0 0 0 0 0 0 0 0 0 0 -0 0 0 0 0 0 0 0 0
0 0 0 0 0 0 0 0 0 0 0 0 0 0 0 0 0 0 -0 0 0 0 0 0 0 0 0 0 0 0 0 0 0 0 0 0 0 0 0 0 0 0 0 0 0 0 0
0 0 0 0 0 0 0 0 0 0 0 0 0 0 0 0 0 0 0 0 0 0 0 0 0 0 0 0 0 0 0 0 0 0 0 0 0 0 0 0 0 0 0 0 0 0 0
0 0 0 0 0 0 0 0 0 0 0 0 0 0 0 0 0 0 0 0 0 0 0 0 0 0 0 0 0 0 0 0 0 0 0 0 0 0 0 -0 0 0 0 0 0 0 0
0 0 0 0 0 0 0 0 0 0 0 0 0 0 0 0 0 0 0 0 0 0 0 0 0 0 0 0 0 0 0 0 0 0 0 0 0 0 0 0 -0 0 0 0 0 0 0
0 0 0 0 0 0 0 0 0 0 0 0 0 0 0 0 0 0 0 0 0 0 0 0 0 0 -0 0 0 0 0 0 0 0 0 0 0 0 0 0 0 0 0 0 0 0 0
0 0 0 0 0 0 0 0 0 0 0 0 0 0 0 0 0 0 0 0 0 0 0 0 0 0 0 0 0 0 0 0 0 0 1 0 0 0 0 0 0 0 0 0 0 0 0
0 0 0 0 0 0 0 0 0 0 0 0 0 0 0 0 0 0 0 0 0 0 0 0 0 0 0 0 0 0 0 0 0 0 0 0 0 0 0 0 0 0 0 0 0 0 0
0 0 0 0 0 0 0 0 0 0 0 0 0 0 0 0 0 0 0 0 0 0 0 0 0 0 0 0 0 0 0 0 0 0 0 0 0 0 0 0 0 0 0 0 0 0 0
0 0 0 0 0 0 0 0 0 0 0 0 0 0 0 0 0 0 0 0 0 0 0 0 0 0 0 0 0 0 0 0 0 0 0 0 0 0 0 0 -0 0 -0 0 0 0 0
0 0 0 0 0 0 0 0 0 0 0 0 0 0 0 0 0 0 0 0 0 0 0 0 0 0 0 0 0 0 0 0 0 0 0 0 0 0 0 0 0 0 0 0 0 0 0
0 0 0 0 0 0 0 0 0 0 0 0 0 0 0 0 0 0 0 0 0 0 0 0 0 0 0 0 0 0 0 0 0 0 0 0 0 0 0 0 0 0 0 0 -0 1 0
Wind_Speed_500mb
35 27 19 13 8 5 7 12 13 15 15 14 13 14 13 14 14 16 17 16 13 9 8 11 19 23 12 16 9 18 13 11 15 21 23 27 27 32 33 17 9 13 12 8 5 11 22
43 40 34 23 12 8 5 5 8 11 13 14 13 15 14 14 14 16 16 17 13 10 8 11 19 18 14 28 12 12 6 10 7 24 33 21 28 25 25 3 14 11 11 4 3 17 11
43 43 42 38 26 12 8 5 4 5 9 11 13 13 13 13 14 16 16 17 14 11 9 12 16 18 20 28 13 13 13 14 12 11 10 10 17 10 28 9 11 19 15 21 20 13 12
41 43 43 45 43 27 14 7 4 3 5 8 10 11 12 14 15 15 16 17 14 11 8 10 11 13 18 12 14 13 13 9 7 6 11 6 13 22 19 27 9 25 29 26 26 14 11
37 39 41 44 46 44 28 16 6 1 3 5 8 10 13 14 14 14 16 17 13 11 8 8 8 12 27 11 14 15 13 13 10 11 14 13 17 27 35 18 27 29 24 24 17 18 2
33 35 37 38 40 42 40 30 19 7 1 5 8 10 12 13 14 15 17 14 11 11 8 10 20 16 24 18 17 11 15 12 12 14 16 18 28 27 25 26 13 26 15 15 1 2 13
28 30 31 33 35 36 37 36 30 18 7 4 8 10 12 14 15 17 18 7 11 10 25 30 20 26 9 6 9 14 18 14 18 18 23 35 22 31 1 24 21 20 21 19 18 1 4
24 26 27 29 31 32 33 34 33 28 15 2 7 10 13 14 15 18 22 12 19 12 23 33 21 16 5 9 17 16 11 18 26 23 33 22 25 17 18 15 18 18 21 19 23 24 13
20 22 24 27 28 30 31 32 32 32 24 4 6 11 14 14 12 20 21 20 10 12 19 35 27 25 16 19 19 23 17 24 18 27 13 25 24 19 10 14 7 22 22 18 23 29 29
17 19 22 25 27 28 29 30 31 32 29 10 7 13 17 14 13 14 22 10 8 9 10 25 24 18 19 21 8 7 9 13 8 19 21 16 24 10 8 19 10 16 23 21 27 24 23
16 19 22 24 26 27 29 29 29 29 29 16 6 18 17 19 11 14 9 7 4 3 11 36 32 16 23 24 23 20 7 13 24 12 9 10 9 10 13 21 10 22 24 27 24 25 26
16 20 23 25 27 28 29 28 27 25 25 21 3 21 16 7 7 7 7 6 4 12 10 19 24 18 25 28 12 12 11 13 23 8 15 9 15 8 16 11 5 20 27 39 34 28 22
17 20 23 26 29 30 30 29 28 25 21 19 3 23 24 19 13 4 6 12 11 20 14 18 26 22 28 22 17 12 12 12 12 10 18 16 16 18 8 19 14 23 23 18 3 8 8
18 20 22 26 28 30 32 31 30 27 22 16 10 20 27 28 17 10 11 15 16 32 27 6 17 24 25 22 16 14 13 18 12 22 6 23 11 3 9 10 13 26 13 13 14 21 29
20 22 23 25 27 29 31 32 30 28 25 17 12 5 31 27 22 13 22 18 24 24 15 9 12 17 26 24 11 18 15 20 8 8 15 17 19 9 2 4 4 20 14 21 13 29 20
20 21 23 25 26 28 30 31 30 27 24 20 16 14 25 21 17 14 16 29 23 7 13 10 21 16 20 24 21 13 22 18 8 5 14 13 10 10 13 11 7 10 9 8 10 10 19
23 23 23 24 25 27 29 31 31 27 21 18 15 14 21 13 15 18 17 26 23 7 4 9 20 30 25 21 21 21 9 18 9 15 3 12 10 18 18 17 9 7 17 10 2 10 15
24 24 24 24 25 26 27 28 30 28 19 13 11 15 13 17 21 26 22 33 4 5 14 16 17 25 17 20 21 24 17 13 9 5 4 6 5 16 32 20 5 14 13 11 8 15 20
27 26 26 26 26 26 27 28 27 26 25 18 10 30 11 18 18 22 33 26 5 14 18 14 18 20 22 19 9 14 26 11 7 5 7 4 7 11 14 8 15 16 1 6 11 7 21
30 30 29 29 29 29 29 27 26 21 18 18 10 7 18 20 36 29 29 22 19 21 21 24 16 22 17 14 21 10 22 11 14 15 10 7 7 15 20 29 29 20 24 23 21 10 21
33 33 32 32 32 30 30 29 25 20 14 10 10 17 12 9 25 32 27 21 25 19 19 22 17 29 18 17 23 23 14 18 12 11 5 4 11 20 25 33 24 31 30 28 30 28 26
38 36 34 32 32 31 29 28 25 20 14 14 11 16 18 28 17 18 24 26 25 21 19 20 19 27 28 24 25 17 20 25 14 18 12 9 9 18 25 27 33 37 20 31 36 30 29
39 37 36 33 30 28 27 23 20 17 13 9 17 19 12 21 26 18 21 24 29 29 17 22 17 17 28 4 15 14 18 23 11 18 14 12 12 17 22 28 26 16 29 19 27 14 13
38 36 33 30 26 24 23 19 16 15 21 15 13 12 18 19 25 23 35 40 31 37 28 13 15 17 18 16 11 9 13 9 13 15 23 14 15 17 20 26 26 26 9 20 11 18 19
33 31 29 27 23 19 19 17 14 15 17 22 3 10 20 18 35 33 35 26 24 6 7 16 6 7 12 13 11 12 15 17 22 25 22 18 17 20 20 24 28 28 8 3 5 7 16
31 29 28 25 22 18 16 16 13 14 18 20 10 16 8 15 20 30 29 24 14 17 17 33 8 1 7 14 16 23 24 29 28 13 15 18 27 19 22 28 32 29 15 15 6 12 19
29 29 27 25 22 19 15 14 12 12 19 22 5 16 7 20 27 14 8 12 16 25 14 25 34 12 14 15 21 27 27 35 32 28 17 18 20 24 23 7 26 32 66 13 7 4 14
29 28 27 24 22 20 17 13 11 10 15 22 4 13 6 18 7 8 8 12 18 15 16 9 5 10 11 19 22 23 25 28 27 26 14 19 14 12 10 9 16 11 14 26 14 15 18
28 28 27 25 22 20 18 15 12 10 13 17 2 17 19 11 11 10 7 7 2 7 14 9 9 6 15 10 17 17 23 22 23 21 14 1 14 13 16 14 30 29 33 26 41 20 25
Wind_Direction_500mb
70 71 74 80 93 143 195 210 214 220 223 226 226 229 215 205 205 205 202 202 209 234 268 302 315 321 295 278 194 149 168 180 194 190 232 219 211 222 242 232 58 267 286 110 29 321 298
68 67 66 64 71 89 122 178 204 214 220 222 222 221 206 204 206 207 205 207 217 239 268 303 318 322 299 279 118 174 147 216 243 238 264 248 226 233 306 18 248 5 339 268 251 257 347
66 64 61 57 54 69 95 111 143 192 211 214 212 205 202 207 206 208 208 210 224 242 265 299 321 312 280 271 159 174 194 225 231 265 248 298 346 259 318 206 278 293 269 228 220 241 289
61 58 55 53 51 54 70 87 103 157 201 208 207 203 206 208 205 206 207 213 229 241 255 293 298 304 272 144 174 190 198 198 215 239 311 335 290 292 301 319 264 256 251 261 184 143 175
57 54 52 49 48 51 55 55 58 97 222 227 218 210 207 203 201 201 204 214 230 237 241 278 276 272 269 191 199 207 205 239 201 254 262 279 269 279 278 247 251 230 271 215 168 149 218
55 52 50 48 46 46 47 46 43 36 267 219 213 207 204 200 199 197 197 210 225 237 254 235 237 275 243 195 198 223 237 251 248 261 259 245 246 244 232 238 297 344 243 22 307 74 137
50 49 47 44 43 43 43 41 39 31 12 239 215 207 204 200 197 194 188 268 222 235 217 220 225 239 112 196 240 230 215 226 246 248 255 226 246 242 164 24 0 335 325 306 299 79 3
45 42 40 39 38 36 37 36 34 28 16 293 212 204 199 194 198 202 207 229 270 332 213 233 262 258 268 227 207 215 187 224 218 252 222 249 238 60 33 19 340 321 296 309 335 5 331
36 33 31 29 29 28 28 30 28 26 18 8 189 191 186 183 205 202 200 250 277 295 268 224 218 220 194 208 225 165 210 229 266 243 234 262 40 51 1 333 324 305 360 8 327 311 293
20 19 19 20 18 19 17 19 23 22 20 17 176 181 177 183 186 204 237 244 269 294 268 175 201 230 174 217 220 85 268 302 253 267 220 276 84 359 303 268 53 308 12 325 304 301 294
359 2 4 6 6 6 7 7 12 15 19 20 188 181 193 197 276 222 147 228 261 268 270 142 182 176 184 210 120 192 242 274 278 300 301 50 102 210 258 58 37 323 325 284 270 270 281
344 348 350 351 353 354 355 355 358 4 9 17 208 188 195 237 208 337 200 244 255 233 251 162 144 194 215 209 191 119 207 250 306 320 229 2 50 348 1 12 248 289 301 311 276 250 245
327 334 338 339 342 342 344 344 344 348 354 0 344 200 198 215 258 216 267 227 218 243 146 148 182 194 211 194 182 198 198 201 219 217 225 208 183 107 328 287 194 358 357 323 278 283 194
312 320 325 330 334 335 337 335 336 335 334 338 338 216 210 228 283 278 259 242 252 229 247 97 181 195 202 180 189 209 199 218 219 295 224 245 125 124 132 29 356 303 341 334 338 318 322
302 309 316 321 325 329 331 330 329 329 325 322 319 254 219 233 250 263 259 233 219 287 338 124 240 218 201 187 232 172 236 262 161 197 354 343 72 111 94 346 3 350 338 344 299 271 257
288 296 305 312 318 323 327 328 327 325 322 316 305 275 234 202 221 230 249 258 288 44 346 6 290 216 247 202 174 257 199 224 125 67 25 337 316 314 152 254 212 281 342 335 227 301 322
279 286 293 301 310 318 324 327 327 326 323 311 295 260 150 188 195 232 238 239 237 184 283 247 273 276 250 257 205 221 225 123 107 130 248 312 318 296 293 13 283 304 311 256 338 289 298
273 282 289 296 303 311 319 326 330 332 327 300 276 268 158 169 201 232 242 247 302 317 192 245 269 291 302 287 280 198 75 78 68 96 237 69 352 308 314 261 235 313 311 344 312 300 307
269 277 286 294 301 308 314 320 327 335 341 346 279 255 207 199 228 229 227 252 93 233 257 236 235 254 286 290 311 277 94 89 75 117 33 72 232 276 295 233 59 302 9 262 228 275 276
266 274 281 289 297 304 308 311 316 320 328 332 292 253 217 217 246 291 289 208 229 218 267 257 265 267 238 259 263 295 126 105 85 56 54 16 285 272 280 300 314 294 304 293 292 252 271
263 269 278 286 290 295 300 303 303 299 296 312 243 251 303 216 227 247 262 288 227 195 206 243 241 257 240 236 249 223 125 123 136 133 196 268 258 271 280 287 297 295 286 291 289 282 275
261 267 274 279 284 290 292 294 295 281 256 260 280 307 333 263 298 288 237 255 269 255 218 220 226 258 234 253 257 285 263 162 196 166 207 183 273 285 277 285 277 270 296 288 277 268 279
259 262 267 273 278 281 285 287 286 269 225 241 262 278 279 288 238 267 265 234 249 266 280 234 321 250 265 266 358 1 19 94 209 151 200 214 253 281 265 280 290 283 274 293 332 270 279
252 254 257 261 266 271 275 275 270 251 216 220 333 304 271 254 266 238 236 248 234 247 250 224 232 272 22 339 311 263 271 294 276 271 172 205 243 258 266 273 270 271 271 251 305 312 326
242 243 246 249 250 255 262 263 254 237 217 213 296 268 269 275 264 260 250 275 242 185 262 266 271 101 346 309 265 241 251 247 251 245 229 225 244 268 264 268 270 278 313 86 282 298 340
232 234 236 240 242 240 250 256 250 231 205 189 265 254 265 278 263 347 327 204 250 242 237 240 136 53 346 277 246 243 246 238 231 215 20 50 1 301 279 282 282 302 320 98 34 290 353
225 227 230 232 235 235 233 243 245 225 202 184 227 258 237 261 268 342 332 352 272 274 293 233 215 181 218 248 248 252 249 247 253 207 199 197 232 249 259 14 300 19 359 43 244 27 360
218 220 223 226 227 232 226 223 232 222 199 189 225 259 192 265 297 341 317 323 307 279 270 24 209 170 256 247 250 257 259 265 275 282 152 181 214 232 224 217 265 69 38 321 5 346 319
211 211 216 219 222 226 229 216 210 209 185 169 59 312 228 240 354 286 261 272 357 11 330 299 321 336 3 253 243 260 268 281 295 288 302 134 299 151 181 239 222 234 201 226 252 321 309
Wind_Speed_850mb
35 27 19 13 8 5 7 12 13 15 15 14 13 14 13 14 14 16 17 16 13 9 8 11 19 23 12 16 9 18 13 11 15 21 23 27 27 32 33 17 9 13 12 8 5 11 22
43 40 34 23 12 8 5 5 8 11 13 14 13 15 14 14 14 16 16 17 13 10 8 11 19 18 14 28 12 12 6 10 7 24 33 21 28 25 25 3 14 11 11 4 3 17 11
43 43 42 38 26 12 8 5 4 5 9 11 13 13 13 13 14 16 16 17 14 11 9 12 16 18 20 28 13 13 13 14 12 11 10 10 17 10 28 9 11 19 15 21 20 13 12
41 43 43 45 43 27 14 7 4 3 5 8 10 11 12 14 15 15 16 17 14 11 8 10 11 13 18 12 14 13 13 9 7 6 11 6 13 22 19 27 9 25 29 26 26 14 11
37 39 41 44 46 44 28 16 6 1 3 5 8 10 13 14 14 14 16 17 13 11 8 8 8 12 27 11 14 15 13 13 10 11 14 13 17 27 35 18 27 29 24 24 17 18 2
33 35 37 38 40 42 40 30 19 7 1 5 8 10 12 13 14 15 17 14 11 11 8 10 20 16 24 18 17 11 15 12 12 14 16 18 28 27 25 26 13 26 15 15 1 2 13
28 30 31 33 35 36 37 36 30 18 7 4 8 10 12 14 15 17 18 7 11 10 25 30 20 26 9 6 9 14 18 14 18 18 23 35 22 31 1 24 21 20 21 19 18 1 4
24 26 27 29 31 32 33 34 33 28 15 2 7 10 13 14 15 18 22 12 19 12 23 33 21 16 5 9 17 16 11 18 26 23 33 22 25 17 18 15 18 18 21 19 23 24 13
20 22 24 27 28 30 31 32 32 32 24 4 6 11 14 14 12 20 21 20 10 12 19 35 27 25 16 19 19 23 17 24 18 27 13 25 24 19 10 14 7 22 22 18 23 29 29
17 19 22 25 27 28 29 30 31 32 29 10 7 13 17 14 13 14 22 10 8 9 10 25 24 18 19 21 8 7 9 13 8 19 21 16 24 10 8 19 10 16 23 21 27 24 23
16 19 22 24 26 27 29 29 29 29 29 16 6 18 17 19 11 14 9 7 4 3 11 36 32 16 23 24 23 20 7 13 24 12 9 10 9 10 13 21 10 22 24 27 24 25 26
16 20 23 25 27 28 29 28 27 25 25 21 3 21 16 7 7 7 7 6 4 12 10 19 24 18 25 28 12 12 11 13 23 8 15 9 15 8 16 11 5 20 27 39 34 28 22
17 20 23 26 29 30 30 29 28 25 21 19 3 23 24 19 13 4 6 12 11 20 14 18 26 22 28 22 17 12 12 12 12 10 18 16 16 18 8 19 14 23 23 18 3 8 8
18 20 22 26 28 30 32 31 30 27 22 16 10 20 27 28 17 10 11 15 16 32 27 6 17 24 25 22 16 14 13 18 12 22 6 23 11 3 9 10 13 26 13 13 14 21 29
20 22 23 25 27 29 31 32 30 28 25 17 12 5 31 27 22 13 22 18 24 24 15 9 12 17 26 24 11 18 15 20 8 8 15 17 19 9 2 4 4 20 14 21 13 29 20
20 21 23 25 26 28 30 31 30 27 24 20 16 14 25 21 17 14 16 29 23 7 13 10 21 16 20 24 21 13 22 18 8 5 14 13 10 10 13 11 7 10 9 8 10 10 19
23 23 23 24 25 27 29 31 31 27 21 18 15 14 21 13 15 18 17 26 23 7 4 9 20 30 25 21 21 21 9 18 9 15 3 12 10 18 18 17 9 7 17 10 2 10 15
24 24 24 24 25 26 27 28 30 28 19 13 11 15 13 17 21 26 22 33 4 5 14 16 17 25 17 20 21 24 17 13 9 5 4 6 5 16 32 20 5 14 13 11 8 15 20
27 26 26 26 26 26 27 28 27 26 25 18 10 30 11 18 18 22 33 26 5 14 18 14 18 20 22 19 9 14 26 11 7 5 7 4 7 11 14 8 15 16 1 6 11 7 21
30 30 29 29 29 29 29 27 26 21 18 18 10 7 18 20 36 29 29 22 19 21 21 24 16 22 17 14 21 10 22 11 14 15 10 7 7 15 20 29 29 20 24 23 21 10 21
33 33 32 32 32 30 30 29 25 20 14 10 10 17 12 9 25 32 27 21 25 19 19 22 17 29 18 17 23 23 14 18 12 11 5 4 11 20 25 33 24 31 30 28 30 28 26
38 36 34 32 32 31 29 28 25 20 14 14 11 16 18 28 17 18 24 26 25 21 19 20 19 27 28 24 25 17 20 25 14 18 12 9 9 18 25 27 33 37 20 31 36 30 29
39 37 36 33 30 28 27 23 20 17 13 9 17 19 12 21 26 18 21 24 29 29 17 22 17 17 28 4 15 14 18 23 11 18 14 12 12 17 22 28 26 16 29 19 27 14 13
38 36 33 30 26 24 23 19 16 15 21 15 13 12 18 19 25 23 35 40 31 37 28 13 15 17 18 16 11 9 13 9 13 15 23 14 15 17 20 26 26 26 9 20 11 18 19
33 31 29 27 23 19 19 17 14 15 17 22 3 10 20 18 35 33 35 26 24 6 7 16 6 7 12 13 11 12 15 17 22 25 22 18 17 20 20 24 28 28 8 3 5 7 16
31 29 28 25 22 18 16 16 13 14 18 20 10 16 8 15 20 30 29 24 14 17 17 33 8 1 7 14 16 23 24 29 28 13 15 18 27 19 22 28 32 29 15 15 6 12 19
29 29 27 25 22 19 15 14 12 12 19 22 5 16 7 20 27 14 8 12 16 25 14 25 34 12 14 15 21 27 27 35 32 28 17 18 20 24 23 7 26 32 66 13 7 4 14
29 28 27 24 22 20 17 13 11 10 15 22 4 13 6 18 7 8 8 12 18 15 16 9 5 10 11 19 22 23 25 28 27 26 14 19 14 12 10 9 16 11 14 26 14 15 18
28 28 27 25 22 20 18 15 12 10 13 17 2 17 19 11 11 10 7 7 2 7 14 9 9 6 15 10 17 17 23 22 23 21 14 1 14 13 16 14 30 29 33 26 41 20 25
Wind_Direction_850mb
70 71 74 80 93 143 195 210 214 220 223 226 226 229 215 205 205 205 202 202 209 234 268 302 315 321 295 278 194 149 168 180 194 190 232 219 211 222 242 232 58 267 286 110 29 321 298
68 67 66 64 71 89 122 178 204 214 220 222 222 221 206 204 206 207 205 207 217 239 268 303 318 322 299 279 118 174 147 216 243 238 264 248 226 233 306 18 248 5 339 268 251 257 347
66 64 61 57 54 69 95 111 143 192 211 214 212 205 202 207 206 208 208 210 224 242 265 299 321 312 280 271 159 174 194 225 231 265 248 298 346 259 318 206 278 293 269 228 220 241 289
61 58 55 53 51 54 70 87 103 157 201 208 207 203 206 208 205 206 207 213 229 241 255 293 298 304 272 144 174 190 198 198 215 239 311 335 290 292 301 319 264 256 251 261 184 143 175
57 54 52 49 48 51 55 55 58 97 222 227 218 210 207 203 201 201 204 214 230 237 241 278 276 272 269 191 199 207 205 239 201 254 262 279 269 279 278 247 251 230 271 215 168 149 218
55 52 50 48 46 46 47 46 43 36 267 219 213 207 204 200 199 197 197 210 225 237 254 235 237 275 243 195 198 223 237 251 248 261 259 245 246 244 232 238 297 344 243 22 307 74 137
50 49 47 44 43 43 43 41 39 31 12 239 215 207 204 200 197 194 188 268 222 235 217 220 225 239 112 196 240 230 215 226 246 248 255 226 246 242 164 24 0 335 325 306 299 79 3
45 42 40 39 38 36 37 36 34 28 16 293 212 204 199 194 198 202 207 229 270 332 213 233 262 258 268 227 207 215 187 224 218 252 222 249 238 60 33 19 340 321 296 309 335 5 331
36 33 31 29 29 28 28 30 28 26 18 8 189 191 186 183 205 202 200 250 277 295 268 224 218 220 194 208 225 165 210 229 266 243 234 262 40 51 1 333 324 305 360 8 327 311 293
20 19 19 20 18 19 17 19 23 22 20 17 176 181 177 183 186 204 237 244 269 294 268 175 201 230 174 217 220 85 268 302 253 267 220 276 84 359 303 268 53 308 12 325 304 301 294
359 2 4 6 6 6 7 7 12 15 19 20 188 181 193 197 276 222 147 228 261 268 270 142 182 176 184 210 120 192 242 274 278 300 301 50 102 210 258 58 37 323 325 284 270 270 281
344 348 350 351 353 354 355 355 358 4 9 17 208 188 195 237 208 337 200 244 255 233 251 162 144 194 215 209 191 119 207 250 306 320 229 2 50 348 1 12 248 289 301 311 276 250 245
327 334 338 339 342 342 344 344 344 348 354 0 344 200 198 215 258 216 267 227 218 243 146 148 182 194 211 194 182 198 198 201 219 217 225 208 183 107 328 287 194 358 357 323 278 283 194
312 320 325 330 334 335 337 335 336 335 334 338 338 216 210 228 283 278 259 242 252 229 247 97 181 195 202 180 189 209 199 218 219 295 224 245 125 124 132 29 356 303 341 334 338 318 322
302 309 316 321 325 329 331 330 329 329 325 322 319 254 219 233 250 263 259 233 219 287 338 124 240 218 201 187 232 172 236 262 161 197 354 343 72 111 94 346 3 350 338 344 299 271 257
288 296 305 312 318 323 327 328 327 325 322 316 305 275 234 202 221 230 249 258 288 44 346 6 290 216 247 202 174 257 199 224 125 67 25 337 316 314 152 254 212 281 342 335 227 301 322
279 286 293 301 310 318 324 327 327 326 323 311 295 260 150 188 195 232 238 239 237 184 283 247 273 276 250 257 205 221 225 123 107 130 248 312 318 296 293 13 283 304 311 256 338 289 298
273 282 289 296 303 311 319 326 330 332 327 300 276 268 158 169 201 232 242 247 302 317 192 245 269 291 302 287 280 198 75 78 68 96 237 69 352 308 314 261 235 313 311 344 312 300 307
269 277 286 294 301 308 314 320 327 335 341 346 279 255 207 199 228 229 227 252 93 233 257 236 235 254 286 290 311 277 94 89 75 117 33 72 232 276 295 233 59 302 9 262 228 275 276
266 274 281 289 297 304 308 311 316 320 328 332 292 253 217 217 246 291 289 208 229 218 267 257 265 267 238 259 263 295 126 105 85 56 54 16 285 272 280 300 314 294 304 293 292 252 271
263 269 278 286 290 295 300 303 303 299 296 312 243 251 303 216 227 247 262 288 227 195 206 243 241 257 240 236 249 223 125 123 136 133 196 268 258 271 280 287 297 295 286 291 289 282 275
261 267 274 279 284 290 292 294 295 281 256 260 280 307 333 263 298 288 237 255 269 255 218 220 226 258 234 253 257 285 263 162 196 166 207 183 273 285 277 285 277 270 296 288 277 268 279
259 262 267 273 278 281 285 287 286 269 225 241 262 278 279 288 238 267 265 234 249 266 280 234 321 250 265 266 358 1 19 94 209 151 200 214 253 281 265 280 290 283 274 293 332 270 279
252 254 257 261 266 271 275 275 270 251 216 220 333 304 271 254 266 238 236 248 234 247 250 224 232 272 22 339 311 263 271 294 276 271 172 205 243 258 266 273 270 271 271 251 305 312 326
242 243 246 249 250 255 262 263 254 237 217 213 296 268 269 275 264 260 250 275 242 185 262 266 271 101 346 309 265 241 251 247 251 245 229 225 244 268 264 268 270 278 313 86 282 298 340
232 234 236 240 242 240 250 256 250 231 205 189 265 254 265 278 263 347 327 204 250 242 237 240 136 53 346 277 246 243 246 238 231 215 20 50 1 301 279 282 282 302 320 98 34 290 353
225 227 230 232 235 235 233 243 245 225 202 184 227 258 237 261 268 342 332 352 272 274 293 233 215 181 218 248 248 252 249 247 253 207 199 197 232 249 259 14 300 19 359 43 244 27 360
218 220 223 226 227 232 226 223 232 222 199 189 225 259 192 265 297 341 317 323 307 279 270 24 209 170 256 247 250 257 259 265 275 282 152 181 214 232 224 217 265 69 38 321 5 346 319
211 211 216 219 222 226 229 216 210 209 185 169 59 312 228 240 354 286 261 272 357 11 330 299 321 336 3 253 243 260 268 281 295 288 302 134 299 151 181 239 222 234 201 226 252 321 309